Regional Weather Roundup
Issued by NWS

Home | Current Version | Previous Version | Graphics & Text | Print | Product List | Glossary On
Versions: 1 2 3 4 5 6 7 8 9 10 11 12 13 14 15 16 17 18 19 20 21 22 23 24 25 26 27 28 29 30 31 32 33 34 35 36 37 38 39 40 41 42 43 44 45 46 47 48 49 50
000
ASUS43 KMKX 271521
RWRWI

WISCONSIN REGIONAL WEATHER ROUNDUP
NATIONAL WEATHER SERVICE MILWAUKEE/SULLIVAN WI
1000 AM CDT MON APR 27 2015

NOTE: "FAIR" INDICATES FEW OR NO CLOUDS BELOW 12,000 FEET WITH NO
SIGNIFICANT WEATHER AND/OR OBSTRUCTIONS TO VISIBILITY.

WIZ001-002-006>008-014>016-023>028-271600-
NORTHWEST WISCONSIN

CITY           SKY/WX    TMP DP  RH WIND       PRES   REMARKS
SUPERIOR ARPT  SUNNY     53  31  42 CALM      30.24R
ASHLAND        SUNNY     53  30  41 N8        30.24R
HAYWARD        SUNNY     53  28  38 VRB5      30.23R
SIREN          SUNNY     54  28  35 CALM      30.24R
CUMBERLAND     SUNNY     52  27  37 N6        30.22S
RICE LAKE      SUNNY     53  29  40 N7        30.23S
CHETEK         SUNNY     53  32  45 W6        30.22S
LADYSMITH      SUNNY     52  31  44 N9        30.22S
EAU CLAIRE     SUNNY     53  29  39 VRB6      30.22R
MENOMONIE      SUNNY     53  28  38 CALM      30.23R
NEW RICHMOND   SUNNY     55  27  34 W3        30.24R
OSCEOLA        SUNNY     54  29  38 NW5       30.28R
$$

WIZ003>005-009-010-017-018-271600-
NORTH CENTRAL WISCONSIN

CITY           SKY/WX    TMP DP  RH WIND       PRES   REMARKS
MANITOWISH WTR SUNNY     49  29  45 N10       30.18S
ARBOR VITAE    SUNNY     52  29  42 N12G20    30.16F
WOODRUFF       SUNNY     52  29  42 N12G20    30.16F
RHINELANDER    SUNNY     50  28  42 NE8G20    30.16F
EAGLE RIVER    SUNNY     50  26  39 N12G21    30.15S
LAND O LAKES   SUNNY     51  28  41 N12G20    30.17S
PHILLIPS       SUNNY     51  31  45 N7        30.18S
TOMAHAWK       SUNNY     51  29  42 CALM      30.17S
MEDFORD        SUNNY     51  31  45 N14       30.17S
MERRILL        SUNNY     52  30  42 N13       30.15S
$$

WIZ029-030-035-036-043>047-271600-
CENTRAL WISCONSIN

CITY           SKY/WX    TMP DP  RH WIND       PRES   REMARKS
WAUSAU         SUNNY     52  30  43 MISG      30.14F
MOSINEE        SUNNY     52  30  43 N8        30.16S
MARSHFIELD     SUNNY     54  31  41 N8        30.17S
STEVENS POINT  SUNNY     51  29  43 NW5G10    30.16S
WAUPACA        SUNNY     55  32  42 N5        30.15R
WAUTOMA        SUNNY     55  28  35 N12       30.16R
WISC RAPIDS    SUNNY     54  29  38 N8        30.18R
CAMP DOUGLAS   SUNNY     55  32  41 NW10      30.18R
$$

WIZ011>013-019>022-031-037>040-048>050-271600-
NORTHEAST WISCONSIN

CITY           SKY/WX    TMP DP  RH WIND       PRES   REMARKS
ANTIGO         SUNNY     50  31  47 N13       30.14S
SHAWANO        SUNNY     55  31  40 N13       30.14S
OCONTO         SUNNY     51  33  50 NE10      30.13S
STURGEON BAY   MOSUNNY   46  32  57 N16       30.16R
GREEN BAY      SUNNY     54  35  48 N13       30.12F
MANITOWOC      SUNNY     51  34  52 N14G21    30.11F
APPLETON       MOSUNNY   50  30  46 N10       30.13F
CLINTONVILLE   SUNNY     52  32  46 N12       30.13F
OSHKOSH        SUNNY     52  33  48 N12       30.13S
$$

WIZ032>034-041-042-053>061-271600-
SOUTHWEST WISCONSIN

CITY           SKY/WX    TMP DP  RH WIND       PRES   REMARKS
LA CROSSE      SUNNY     53  34  48 NW5       30.22R
SPARTA         SUNNY     54  30  39 NW6       30.21R
VIROQUA        SUNNY     51  32  47 N8        30.20S
BOSCOBEL       SUNNY     55  32  41 VRB5      30.20S
PRAIRIE DU CHI SUNNY     51  30  43 W5        30.21S
PLATTEVILLE    SUNNY     51  33  49 N6        30.19R
$$

WIZ056-057-062-063-064-067-068-271600-
SOUTH CENTRAL WISCONSIN

CITY           SKY/WX    TMP DP  RH WIND       PRES   REMARKS
REEDSBURG      SUNNY     52  32  45 NW7       30.17S
BARABOO/DELLS  SUNNY     52  30  43 NW7       30.17R
LONE ROCK      SUNNY     52  33  48 W3        30.19R
MINERAL POINT  SUNNY     54  30  40 NW8       30.18S
MADISON        MOSUNNY   52  32  46 NW8       30.16R
MIDDLETON      SUNNY     53  31  42 N8        30.17S
WATERTOWN      SUNNY     50  34  54 N6        30.14S
MONROE         SUNNY     52  34  50 N8        30.16R
JANESVILLE     SUNNY     54  30  40 N7        30.15R
$$

WIZ051-052-058>065-066-070>072-271600-
SOUTHEAST WISCONSIN

CITY           SKY/WX    TMP DP  RH WIND       PRES   REMARKS
MILWAUKEE      MOSUNNY   49  34  56 NE15G21   30.14R
WAUKESHA       MOSUNNY   48  34  57 N7        30.13S
MILWAUKEE/TIMM SUNNY     52  32  46 N10       30.13R
RACINE         SUNNY     49  33  54 N14       30.15R
BURLINGTON     SUNNY     50  33  52 N12       30.14R
KENOSHA        MOSUNNY   52  35  52 N13       30.13R
FOND DU LAC    SUNNY     52  33  48 NW12      30.14R
SHEBOYGAN      SUNNY     52  33  48 N16       30.11S
WEST BEND      MOSUNNY   50  32  50 N10G21    30.12S
JUNEAU         SUNNY     50  32  51 NW8       30.15S
$$

LSZ147-162-271600-
LAKE SUPERIOR

STATION/POSITION TIME  TEMP    WIND        PRES    WAVE
                       AIR SEA DIR/SP/G            HT/PER
                 (UTC) (F)     (DEG/KT/KT) (MB)    (FT/S)
W MID LAKE BUOY  1450   38 35  310/  2/  4 1025.0R   0
DEVILS ISLAND    1500   38     250/  6/  8 1025.1R
PORT WING        1440   41     300/  5/  6 1024.4R
SAXON HARBOR     1400   40        CALM     1023.7
$$

LMZ867-665-643>646-271600-
LAKE MICHIGAN

STATION/POSITION TIME  TEMP    WIND        PRES    WAVE
                       AIR SEA DIR/SP/G            HT/PER
                 (UTC) (F)     (DEG/KT/KT) (MB)    (FT/S)
CHAMBERS ISLAND  1400   44     330/  9/ 10 1020.3S
NORTHPORT PIER   1400   39     320/ 10/ 13 1020.3R
SISTER BAY       1447   44     350/ 15/ 20   N/A
KEWAUNEE LAKESHO 1400   47     360/  9/ 14 1018.9R
SHEBOYGAN LAKESH 1500   44      20/  9/ 10 1020.7R
PORT WASHINGTON  1400   50     360/  6/ 13 1020.3S
MILWAUKEE LAKESH 1500   46      30/ 11/ 13   N/A
KENOSHA   LAKESH 1500   44      20/ 16/ 19 1020.3R
$$

TC  - TEMPERATURE IN CELSIUS
VSB - VISIBILITY IN STATUTE MILES
WCI - WIND CHILL INDEX
HX  - HEAT INDEX




USA.gov is the U.S. government's official web portal to all federal, state and local government web resources and services.